| time (UTC) | temp F | wind direction | speed knots | gust knots | rain 1hr in | rain 24hr in | rain mn in | humidity % | barometer mb |
| 20260509160051 | 51 | 207 | 0.0 | 0.0 | 0.00 | 0.00 | 0.00 | 66 | 1013.2 |
| 20260509154602 | 51 | 232 | 0.0 | 2.6 | 0.00 | 0.00 | 0.00 | 61 | 1013.3 |
| 20260509153050 | 52 | 144 | 0.0 | 7.0 | 0.00 | 0.00 | 0.00 | 56 | 1013.4 |
| 20260509151552 | 54 | 187 | 0.0 | 6.1 | 0.00 | 0.00 | 0.00 | 49 | 1013.3 |
| 20260509150104 | 54 | 198 | 0.0 | 6.1 | 0.00 | 0.00 | 0.00 | 42 | 1013.0 |
| 20260509144647 | 55 | 130 | 0.0 | 3.5 | 0.00 | 0.00 | 0.00 | 43 | 1012.8 |
| 20260509143053 | 56 | 94 | 0.0 | 0.9 | 0.00 | 0.00 | 0.00 | 44 | 1012.6 |
| 20260509141547 | 55 | 200 | 0.0 | 3.5 | 0.00 | 0.00 | 0.00 | 44 | 1012.5 |
| 20260509140045 | 55 | 82 | 0.0 | 1.7 | 0.00 | 0.00 | 0.00 | 40 | 1012.5 |
| 20260509134546 | 56 | 156 | 0.0 | 2.6 | 0.00 | 0.00 | 0.00 | 43 | 1012.5 |
| 20260509133108 | 56 | 198 | 0.0 | 3.5 | 0.00 | 0.00 | 0.00 | 45 | 1012.5 |
| 20260509131541 | 56 | 84 | 0.0 | 4.3 | 0.00 | 0.00 | 0.00 | 46 | 1012.7 |
| 20260509130039 | 55 | 206 | 0.0 | 3.5 | 0.00 | 0.00 | 0.00 | 45 | 1012.9 |
| 20260509124546 | 54 | 136 | 0.0 | 7.8 | 0.00 | 0.00 | 0.00 | 47 | 1012.8 |
| 20260509123039 | 54 | 126 | 0.0 | 3.5 | 0.00 | 0.00 | 0.00 | 52 | 1012.9 |
| 20260509121546 | 53 | 58 | 0.0 | 0.0 | 0.00 | 0.00 | 0.00 | 59 | 1013.1 |
| 20260509120027 | 51 | 72 | 0.0 | 0.0 | 0.00 | 0.00 | 0.00 | 65 | 1013.0 |
| 20260509114545 | 47 | 187 | 0.0 | 0.0 | 0.00 | 0.00 | 0.00 | 72 | 1013.1 |
| 20260509113017 | 42 | 188 | 0.0 | 0.0 | 0.00 | 0.00 | 0.00 | 83 | 1013.1 |
| 20260509111516 | 39 | 188 | 0.0 | 0.0 | 0.00 | 0.00 | 0.00 | 86 | 1013.3 |
| 20260509110016 | 37 | 188 | 0.0 | 0.0 | 0.00 | 0.00 | 0.00 | 88 | 1013.3 |
| 20260509104520 | 36 | 188 | 0.0 | 0.0 | 0.00 | 0.00 | 0.00 | 88 | 1013.1 |
| 20260509103011 | 35 | 188 | 0.0 | 0.0 | 0.00 | 0.00 | 0.00 | 88 | 1012.8 |
| 20260509101512 | 35 | 188 | 0.0 | 0.0 | 0.00 | 0.00 | 0.00 | 88 | 1012.6 |
| 20260509100008 | 34 | 188 | 0.0 | 0.0 | 0.00 | 0.00 | 0.00 | 87 | 1012.4 |
| 20260509094507 | 34 | 188 | 0.0 | 0.0 | 0.00 | 0.00 | 0.00 | 86 | 1012.2 |
| 20260509093004 | 34 | 188 | 0.0 | 0.0 | 0.00 | 0.00 | 0.00 | 85 | 1012.2 |
| 20260509091503 | 35 | 188 | 0.0 | 0.0 | 0.00 | 0.00 | 0.00 | 83 | 1012.0 |
| 20260509090004 | 35 | 188 | 0.0 | 0.0 | 0.00 | 0.00 | 0.00 | 83 | 1011.8 |
| 20260509084605 | 35 | 188 | 0.0 | 0.0 | 0.00 | 0.00 | 0.00 | 82 | 1011.7 |
| 20260509083059 | 36 | 188 | 0.0 | 0.0 | 0.00 | 0.00 | 0.00 | 81 | 1011.8 |
| 20260509081555 | 36 | 188 | 0.0 | 0.0 | 0.00 | 0.00 | 0.00 | 79 | 1011.9 |
| 20260509080108 | 37 | 188 | 0.0 | 0.0 | 0.00 | 0.00 | 0.00 | 78 | 1012.0 |
| 20260509074553 | 37 | 188 | 0.0 | 0.0 | 0.00 | 0.00 | 0.00 | 79 | 1011.9 |
| 20260509073055 | 38 | 188 | 0.0 | 0.0 | 0.00 | 0.00 | 0.00 | 79 | 1011.9 |
| 20260509071546 | 39 | 188 | 0.0 | 0.0 | 0.00 | 0.00 | 0.00 | 79 | 1011.8 |
| 20260509070049 | 39 | 188 | 0.0 | 0.0 | 0.00 | 0.00 | 0.00 | 77 | 1011.8 |
| 20260509064541 | 39 | 188 | 0.0 | 0.0 | 0.00 | 0.00 | 0.00 | 77 | 1011.8 |
| 20260509063039 | 40 | 188 | 0.0 | 0.0 | 0.00 | 0.00 | 0.00 | 75 | 1011.6 |
| 20260509061535 | 40 | 188 | 0.0 | 0.0 | 0.00 | 0.00 | 0.00 | 76 | 1011.5 |
| 20260509060035 | 41 | 188 | 0.0 | 0.0 | 0.00 | 0.00 | 0.00 | 74 | 1011.4 |
| 20260509054530 | 41 | 188 | 0.0 | 0.0 | 0.00 | 0.00 | 0.00 | 72 | 1011.4 |
| 20260509053039 | 41 | 188 | 0.0 | 0.0 | 0.00 | 0.00 | 0.00 | 74 | 1011.3 |
| 20260509051529 | 42 | 188 | 0.0 | 0.0 | 0.00 | 0.00 | 0.00 | 74 | 1011.3 |
| 20260509050042 | 42 | 188 | 0.0 | 0.0 | 0.00 | 0.00 | 0.00 | 75 | 1011.2 |
| 20260509044521 | 42 | 188 | 0.0 | 0.0 | 0.00 | 0.00 | 0.00 | 76 | 1011.3 |
| 20260509043031 | 42 | 188 | 0.0 | 0.0 | 0.00 | 0.00 | 0.00 | 76 | 1011.4 |
| 20260509041514 | 42 | 188 | 0.0 | 0.0 | 0.00 | 0.00 | 0.00 | 74 | 1011.3 |
| 20260509040011 | 42 | 188 | 0.0 | 0.0 | 0.00 | 0.00 | 0.00 | 73 | 1011.1 |
| 20260509034510 | 43 | 188 | 0.0 | 0.0 | 0.00 | 0.00 | 0.00 | 72 | 1010.9 |
| 20260509033012 | 43 | 188 | 0.0 | 0.0 | 0.00 | 0.00 | 0.00 | 72 | 1010.8 |
| 20260509031508 | 43 | 188 | 0.0 | 0.0 | 0.00 | 0.00 | 0.00 | 72 | 1010.7 |
| 20260509030017 | 43 | 188 | 0.0 | 0.0 | 0.00 | 0.00 | 0.00 | 72 | 1010.5 |
| 20260509024504 | 43 | 188 | 0.0 | 0.0 | 0.00 | 0.00 | 0.00 | 70 | 1010.3 |
| 20260509023005 | 43 | 188 | 0.0 | 0.0 | 0.00 | 0.00 | 0.00 | 67 | 1010.3 |
| 20260509021502 | 42 | 188 | 0.0 | 0.0 | 0.00 | 0.00 | 0.00 | 65 | 1010.2 |
| 20260509020059 | 42 | 188 | 0.0 | 0.0 | 0.00 | 0.00 | 0.00 | 66 | 1009.9 |
| 20260509014558 | 41 | 188 | 0.0 | 0.0 | 0.00 | 0.00 | 0.00 | 67 | 1009.7 |
| 20260509013103 | 41 | 188 | 0.0 | 0.0 | 0.00 | 0.00 | 0.00 | 65 | 1009.5 |
| 20260509011602 | 42 | 188 | 0.0 | 0.0 | 0.00 | 0.00 | 0.00 | 63 | 1009.3 |
| 20260509010055 | 43 | 188 | 0.0 | 0.0 | 0.00 | 0.00 | 0.00 | 62 | 1008.9 |
| 20260509004557 | 44 | 188 | 0.0 | 0.0 | 0.00 | 0.00 | 0.00 | 60 | 1008.7 |
| 20260509003046 | 45 | 188 | 0.0 | 0.9 | 0.00 | 0.00 | 0.00 | 56 | 1008.3 |
| 20260509001549 | 47 | 188 | 0.0 | 0.0 | 0.00 | 0.00 | 0.00 | 52 | 1008.2 |
| 20260509000046 | 48 | 188 | 0.0 | 0.0 | 0.00 | 0.00 | 0.00 | 48 | 1008.1 |
| 20260508234541 | 50 | 188 | 0.0 | 0.0 | 0.00 | 0.00 | 0.00 | 46 | 1007.9 |
| 20260508233037 | 51 | 42 | 0.0 | 0.0 | 0.00 | 0.00 | 0.00 | 42 | 1007.6 |
| 20260508231543 | 52 | 344 | 0.0 | 0.0 | 0.00 | 0.00 | 0.00 | 39 | 1007.5 |
| 20260508230034 | 53 | 9 | 0.0 | 1.7 | 0.00 | 0.00 | 0.00 | 37 | 1007.5 |
| 20260508224555 | 53 | 15 | 0.0 | 1.7 | 0.00 | 0.00 | 0.00 | 37 | 1007.5 |
| 20260508223031 | 54 | 5 | 0.0 | 1.7 | 0.00 | 0.00 | 0.00 | 37 | 1007.2 |
| 20260508221535 | 54 | 307 | 0.0 | 7.8 | 0.00 | 0.00 | 0.00 | 34 | 1007.1 |
| 20260508220034 | 54 | 279 | 0.0 | 2.6 | 0.00 | 0.00 | 0.00 | 36 | 1007.1 |
| 20260508214538 | 54 | 291 | 0.0 | 3.5 | 0.00 | 0.00 | 0.00 | 36 | 1007.1 |
| 20260508213033 | 55 | 294 | 0.0 | 7.0 | 0.00 | 0.00 | 0.00 | 35 | 1006.9 |
| 20260508211527 | 55 | 35 | 0.0 | 1.7 | 0.00 | 0.00 | 0.00 | 39 | 1006.9 |
| 20260508210027 | 55 | 76 | 0.0 | 5.2 | 0.00 | 0.00 | 0.00 | 37 | 1006.7 |
| 20260508204527 | 56 | 12 | 0.0 | 9.6 | 0.00 | 0.00 | 0.00 | 34 | 1006.5 |
| 20260508203026 | 57 | 285 | 1.7 | 8.7 | 0.00 | 0.00 | 0.00 | 33 | 1006.4 |
| 20260508201526 | 56 | 238 | 0.9 | 9.6 | 0.00 | 0.00 | 0.00 | 33 | 1006.3 |
| 20260508200037 | 56 | 346 | 0.9 | 7.8 | 0.00 | 0.00 | 0.00 | 37 | 1006.1 |
| 20260508194525 | 56 | 292 | 0.9 | 8.7 | 0.00 | 0.00 | 0.00 | 37 | 1006.1 |
| 20260508193024 | 55 | 220 | 1.7 | 8.7 | 0.00 | 0.00 | 0.00 | 39 | 1006.2 |
| 20260508191523 | 55 | 300 | 0.9 | 8.7 | 0.00 | 0.00 | 0.00 | 38 | 1006.1 |
| 20260508190022 | 56 | 252 | 0.9 | 13.9 | 0.00 | 0.00 | 0.00 | 36 | 1005.9 |
| 20260508184525 | 56 | 205 | 0.0 | 11.3 | 0.00 | 0.00 | 0.00 | 36 | 1005.8 |
| 20260508183016 | 56 | 192 | 0.0 | 12.2 | 0.00 | 0.00 | 0.00 | 34 | 1005.8 |
| 20260508181515 | 56 | 212 | 0.9 | 9.6 | 0.00 | 0.00 | 0.00 | 34 | 1005.7 |
| 20260508180015 | 58 | 246 | 0.0 | 7.8 | 0.00 | 0.00 | 0.00 | 37 | 1005.5 |
| 20260508174514 | 59 | 194 | 0.9 | 15.6 | 0.00 | 0.00 | 0.00 | 32 | 1005.5 |
| 20260508173017 | 59 | 205 | 0.9 | 8.7 | 0.00 | 0.00 | 0.00 | 29 | 1005.6 |
| 20260508171525 | 58 | 280 | 0.0 | 10.4 | 0.00 | 0.00 | 0.00 | 31 | 1005.5 |
| 20260508170011 | 59 | 78 | 0.9 | 7.0 | 0.00 | 0.00 | 0.00 | 31 | 1005.3 |
| 20260508164510 | 59 | 252 | 0.0 | 13.9 | 0.00 | 0.00 | 0.00 | 29 | 1005.3 |
| 20260508163008 | 58 | 224 | 2.6 | 12.2 | 0.00 | 0.00 | 0.00 | 33 | 1005.6 |
| 20260508161511 | 58 | 206 | 0.9 | 13.9 | 0.00 | 0.00 | 0.00 | 34 | 1005.8 |